[[{"header":{"parameterUnit":"m.s-1","parameterCategory":1,"la1":30.2991,"la2":30.254,"lo1":-89.0895,"lo2":-89.0444,"dy":0.0017,"dx":0.0017,"nx":28,"ny":28,"refTime":"2023-07-26T09:00:00:Z","depth":0,"parameterNumber":2,"parameterNumberName":"U-component_of_WINDS"},"data":[0,0,0,0,0,0,0,0,0,0,0,0,0,0,0,0,0,0,0,0,0,0,0,0,0,0,0,0,0,0,0,0,0,0,0,0,0,0,0,0,0,0,0,0,0,0,0,0,0,0,0,0,0,0,0,0,0,0,1.142,1.1421,0,1.1557,1.1558,1.156,1.1618,1.1617,1.1617,1.1617,1.1757,1.1761,1.1765,0,0,0,0,0,0,0,0,0,0,0,0,0,1.1207,1.1211,1.142,1.1422,1.1423,1.1556,1.1558,1.156,1.1618,1.1617,1.1617,1.1617,1.1756,1.176,1.1765,0,0,0,0,0,0,0,0,0,0,0,0,0,1.1317,1.1212,1.142,1.1468,1.1474,1.1556,1.1558,1.1561,1.1618,1.1617,1.1617,1.1617,1.1754,1.176,1.1766,1.181,0,0,1.1784,1.1786,0,0,0,0,0,0,0,0,1.1311,1.1325,1.1459,1.1465,1.1471,1.157,1.1535,1.1644,1.1618,1.1563,1.1617,1.1616,1.1695,1.1706,1.1732,1.1817,1.1823,1.1784,1.1788,1.1791,1.1792,0,0,0,0,0,0,0,1.1303,1.1319,1.1474,1.1461,1.1469,1.1482,1.1498,1.1556,1.1629,1.1568,1.1572,1.1588,1.1698,1.1726,1.1736,1.1825,1.1784,1.1789,1.1793,1.1795,1.1951,1.1952,0,0,0,0,0,0,1.1288,1.1313,1.147,1.1478,1.1389,1.1487,1.1504,1.1539,1.1629,1.1642,1.1588,1.159,1.1716,1.1729,1.1741,1.1798,1.179,1.1796,1.1799,1.1951,1.1951,1.1952,0,0,0,0,0,0,1.1283,1.1301,1.1464,1.1397,1.1419,1.1491,1.1529,1.1541,1.157,1.1644,1.1658,1.1603,1.1717,1.1733,1.1792,1.1804,1.1799,1.1804,1.195,1.1951,1.1952,1.1914,0,0,0,0,0,0,1.1277,1.1299,1.1317,1.1397,1.1422,1.1513,1.153,1.1544,1.158,1.1584,1.1662,1.1675,1.1717,1.1783,1.1798,1.1812,1.1809,1.1949,1.195,1.1951,1.1914,1.1913,1.1912,0,0,0,0,0,1.1269,1.1301,1.1318,1.1336,1.1446,1.1514,1.1528,1.1577,1.158,1.1599,1.1646,1.1672,1.18,1.1789,1.1806,1.1822,1.1949,1.195,1.1951,1.1915,1.1913,1.1912,0,0,0,0,0,0,1.1222,1.1313,1.1332,1.1391,1.1444,1.1523,1.1548,1.1574,1.1627,1.1629,1.1687,1.1704,1.1758,1.1796,1.1782,1.1869,1.1876,1.1881,1.1842,1.1842,1.1841,1.1831,1.1814,0,0,0,0,0,1.1218,1.1266,1.1343,1.1387,1.1413,1.1476,1.1507,1.154,1.1597,1.162,1.1672,1.1727,1.1779,1.1813,1.1865,1.192,1.1937,1.1939,1.1938,1.1937,1.194,1.1971,1.1973,1.1956,1.1956,1.1956,0,0,1.1211,1.1267,1.1294,1.1379,1.1424,1.1472,1.1494,1.1544,1.158,1.1628,1.1687,1.1727,1.1791,1.1848,1.1876,1.1882,1.1949,1.1938,1.1937,1.1941,1.1973,1.1974,1.1975,1.1957,1.1957,1.1957,0,0,1.1223,1.127,1.1313,1.1357,1.1424,1.1466,1.1475,1.1551,1.1579,1.1639,1.1675,1.1719,1.1808,1.1852,1.1887,1.1913,1.1939,1.1929,1.1924,1.1953,1.1954,1.1956,1.1965,1.1967,1.1932,1.1932,1.1932,0,1.1206,1.128,1.1331,1.1378,1.1415,1.1459,1.1502,1.1542,1.1623,1.1647,1.1652,1.1764,1.1811,1.1878,1.1885,1.1911,1.1924,1.192,1.195,1.1952,1.1954,1.1963,1.1967,1.193,1.193,1.193,1.1931,0,1.1256,1.1306,1.1332,1.1408,1.1447,1.1492,1.1549,1.1582,1.1611,1.1651,1.1711,1.1769,1.1833,1.1852,1.1881,1.1923,1.1924,1.1939,1.1947,1.1953,1.1963,1.1967,1.1928,1.1928,1.1929,1.1929,0,0,1.1243,1.1346,1.1355,1.1389,1.1467,1.1506,1.1552,1.1615,1.1642,1.1696,1.1736,1.181,1.1823,1.1862,1.1896,1.1922,1.1938,1.1933,1.1936,1.1932,1.1988,1.1976,1.198,1.1955,1.1956,1.1957,1.1982,0,1.1265,1.135,1.1396,1.1462,1.1508,1.155,1.1591,1.1642,1.168,1.1725,1.1768,1.1819,1.1833,1.1857,1.1884,1.193,1.195,1.1929,1.1993,1.1994,1.1975,1.1985,1.1973,1.1995,1.1986,1.1987,1.1988,0,1.1303,1.1356,1.1425,1.1496,1.1517,1.1552,1.1613,1.1655,1.1714,1.174,1.1782,1.1816,1.1865,1.1869,1.1939,1.1923,1.1952,1.1978,1.198,1.1988,1.1992,1.1993,1.2003,1.2006,1.1994,1.1994,1.1993,0,1.1286,1.1374,1.1427,1.1456,1.154,1.1563,1.1599,1.1658,1.1692,1.1744,1.1767,1.1825,1.1856,1.19,1.1948,1.1947,1.2012,1.202,1.2035,1.2034,1.2047,1.2046,1.2061,1.2065,1.2065,1.2065,1.2065,0,1.1306,1.1347,1.1421,1.1453,1.15,1.1552,1.1597,1.1636,1.1687,1.1728,1.1768,1.1805,1.1866,1.191,1.1948,1.1999,1.2013,1.2036,1.2045,1.2032,1.2029,1.2052,1.2052,1.2066,1.2066,1.2066,1.2066,0,1.1295,1.1346,1.1407,1.1481,1.15,1.1531,1.1594,1.1627,1.1667,1.1718,1.1733,1.1796,1.185,1.1902,1.1975,1.2001,1.2052,1.2064,1.2032,1.2037,1.2049,1.2047,1.208,1.2086,1.2085,1.2085,1.2085,0,1.1304,1.1337,1.1414,1.1444,1.1479,1.1527,1.1561,1.1614,1.1648,1.1717,1.1741,1.1798,1.1847,1.1932,1.1984,1.204,1.2054,1.2061,1.2063,1.2048,1.2054,1.2051,1.2055,1.206,1.206,1.206,1.206,0,1.1315,1.1339,1.1388,1.1445,1.1485,1.1533,1.1582,1.1604,1.1666,1.1703,1.1758,1.1796,1.187,1.1926,1.1988,1.2025,1.2052,1.2059,1.2065,1.2052,1.2032,1.2043,1.2028,1.2058,1.2058,1.2058,1.2058,1.2058,1.1315,1.1345,1.1404,1.1457,1.1499,1.1544,1.1578,1.1622,1.1669,1.1733,1.1761,1.1817,1.1874,1.196,1.1996,1.2041,1.2047,1.2056,1.2059,1.206,1.2057,1.2024,1.2052,1.2052,1.2052,1.2052,1.2053,0,1.1328,1.1367,1.1415,1.1482,1.1524,1.1546,1.1601,1.1634,1.1683,1.1733,1.178,1.1843,1.1898,1.1954,1.2011,1.2036,1.205,1.2049,1.2048,1.2056,1.2048,1.2037,1.2037,1.2037,1.2037,1.2037,1.2037,1.2037,1.1339,1.1392,1.1422,1.1495,1.1534,1.159,1.1619,1.166,1.1701,1.177,1.1815,1.1851,1.1904,1.1965,1.2016,1.2031,1.205,1.2046,1.2064,1.2056,1.2057,1.2058,1.2047,1.2049,1.2049,1.2068,1.2069,1.2069]},{"header":{"parameterUnit":"m.s-1","parameterCategory":1,"la1":30.2991,"la2":30.254,"lo1":-89.0895,"lo2":-89.0444,"dy":0.0017,"dx":0.0017,"nx":28,"ny":28,"refTime":"2023-07-26T09:00:00:Z","depth":0,"parameterNumber":3,"parameterNumberName":"V-component_of_WINDS"},"data":[0,0,0,0,0,0,0,0,0,0,0,0,0,0,0,0,0,0,0,0,0,0,0,0,0,0,0,0,0,0,0,0,0,0,0,0,0,0,0,0,0,0,0,0,0,0,0,0,0,0,0,0,0,0,0,0,0,0,2.0231,2.023,0,2.0144,2.0143,2.0142,2.0065,2.0064,2.0063,2.0062,1.997,1.9968,1.9966,0,0,0,0,0,0,0,0,0,0,0,0,0,2.0324,2.0323,2.0231,2.023,2.0229,2.0144,2.0143,2.0142,2.0065,2.0064,2.0063,2.0062,1.997,1.9968,1.9966,0,0,0,0,0,0,0,0,0,0,0,0,0,2.0265,2.0323,2.0231,2.018,2.0175,2.0145,2.0143,2.0142,2.0065,2.0064,2.0062,2.0061,1.9971,1.9968,1.9966,1.9978,0,0,1.9959,1.9958,0,0,0,0,0,0,0,0,2.0269,2.0262,2.0189,2.0184,2.0177,2.0114,2.0142,2.0087,2.0065,2.0107,2.0062,2.006,2.0018,2.0012,1.9999,1.9974,1.997,1.9958,1.9957,1.9956,1.9955,0,0,0,0,0,0,0,2.0273,2.0265,2.0196,2.0188,2.0181,2.016,2.015,2.0131,2.0071,2.0103,2.0097,2.0088,2.0015,2.0001,1.9996,1.9969,1.9958,1.9956,1.9955,1.9954,1.9947,1.9949,0,0,0,0,0,0,2.0286,2.0269,2.0199,2.0194,2.0221,2.0159,2.0148,2.0136,2.0071,2.006,2.0089,2.0085,2.0006,1.9999,1.9992,2.0001,1.9956,1.9954,1.9952,1.9946,1.9948,1.9949,0,0,0,0,0,0,2.0288,2.028,2.0203,2.023,2.0219,2.0159,2.0146,2.0135,2.0121,2.0061,2.0049,2.0087,2.0005,1.9996,1.9982,1.9997,1.9953,1.995,1.9945,1.9947,1.9948,2.002,0,0,0,0,0,0,2.0291,2.0281,2.0287,2.0231,2.0217,2.0196,2.0147,2.0134,2.0117,2.011,2.0055,2.0045,2.0003,1.9986,1.998,1.9993,1.9948,1.9943,1.9945,1.9948,2.0016,2.0024,2.0031,0,0,0,0,0,2.0295,2.031,2.0288,2.0279,2.0223,2.0197,2.0189,2.0142,2.0119,2.0123,2.0084,2.0046,1.9997,1.9986,1.9978,1.999,1.9942,1.9945,1.9947,2.0013,2.0023,2.0031,0,0,0,0,0,0,2.0369,2.0302,2.0276,2.0274,2.0242,2.0184,2.0188,2.0154,2.0127,2.0121,2.0062,2.005,2.0043,2.0015,2.0004,1.9997,1.9964,1.9965,2.0016,2.0025,2.0032,2.0039,1.9946,0,0,0,0,0,2.0385,2.0371,2.0312,2.0316,2.0301,2.0248,2.0234,2.0201,2.0164,2.015,2.011,2.0075,2.0051,2.0036,2.0011,2.0012,1.9997,2.0016,2.0024,2.003,2.0032,2.0028,2.0035,1.9958,1.9958,1.9958,0,0,2.0418,2.038,2.0374,2.033,2.0301,2.0286,2.0236,2.0223,2.021,2.0147,2.0132,2.0102,2.0058,2.0051,2.0046,2.0028,2.005,2.0034,2.0039,2.0037,2.0032,2.0039,2.0045,1.996,1.996,1.996,0,0,2.0471,2.0441,2.044,2.0412,2.0369,2.0333,2.0333,2.0279,2.0257,2.0241,2.0193,2.0176,2.0137,2.0107,2.0087,2.0127,2.0091,2.0121,2.016,2.0157,2.0163,2.0168,2.018,2.0186,2.0123,2.0123,2.0123,0,2.0517,2.0494,2.0444,2.0433,2.0414,2.0357,2.0355,2.0329,2.028,2.0267,2.0248,2.0196,2.0163,2.0147,2.0157,2.0143,2.014,2.0127,2.0166,2.017,2.0174,2.0186,2.0191,2.0127,2.0126,2.0126,2.0125,0,2.0552,2.0536,2.054,2.0495,2.0476,2.047,2.0418,2.0405,2.0372,2.0338,2.0321,2.0279,2.0244,2.0237,2.0205,2.0217,2.0206,2.0177,2.0142,2.0186,2.0196,2.02,2.0132,2.0131,2.0129,2.0129,0,0,2.0649,2.0576,2.0578,2.0556,2.0503,2.0489,2.0479,2.0446,2.0435,2.0402,2.0391,2.0359,2.0331,2.0308,2.0272,2.0269,2.0302,2.024,2.0238,2.0252,2.0309,2.0331,2.0337,2.0277,2.0278,2.0279,2.0313,0,2.0692,2.0672,2.0627,2.062,2.0604,2.0549,2.0539,2.0505,2.0472,2.0452,2.0415,2.0392,2.0358,2.0344,2.0339,2.0299,2.0312,2.0296,2.0264,2.0264,2.0277,2.0343,2.0366,2.04,2.0316,2.0317,2.0317,0,2.074,2.0712,2.0704,2.0651,2.0643,2.0636,2.06,2.0582,2.0541,2.0517,2.0492,2.0452,2.0436,2.0404,2.038,2.037,2.0354,2.0333,2.0333,2.0327,2.0293,2.0338,2.041,2.0415,2.0323,2.0323,2.0322,0,2.081,2.077,2.076,2.0743,2.0681,2.0677,2.0651,2.0609,2.0591,2.0559,2.0547,2.0514,2.0495,2.0469,2.0421,2.0402,2.0402,2.0366,2.0379,2.0381,2.0382,2.0382,2.0451,2.0373,2.0373,2.0373,2.0373,0,2.0863,2.086,2.079,2.0784,2.0778,2.0725,2.072,2.0689,2.0652,2.0637,2.0587,2.0573,2.051,2.0489,2.045,2.0436,2.0428,2.0406,2.0396,2.0411,2.0413,2.0399,2.0395,2.0374,2.0374,2.0374,2.0374,0,2.094,2.0894,2.0879,2.0822,2.0807,2.0806,2.0756,2.0746,2.071,2.0692,2.0684,2.0627,2.0599,2.0548,2.0505,2.0479,2.0472,2.0455,2.0486,2.048,2.0496,2.0495,2.0558,2.0562,2.0483,2.0484,2.0484,0,2.0977,2.0973,2.0916,2.0903,2.0879,2.0859,2.084,2.0787,2.0769,2.0722,2.0718,2.0686,2.0658,2.0616,2.0569,2.0536,2.0517,2.0541,2.0511,2.0525,2.0515,2.0516,2.0515,2.0548,2.0549,2.055,2.0551,0,2.1046,2.1023,2.0999,2.0967,2.0946,2.0918,2.0887,2.0879,2.0817,2.08,2.0772,2.075,2.0706,2.0675,2.0635,2.0605,2.0567,2.056,2.0561,2.0576,2.0594,2.0583,2.0504,2.0559,2.0558,2.0558,2.0557,2.0557,2.1103,2.1097,2.1055,2.103,2.1001,2.0972,2.0961,2.0923,2.0899,2.086,2.0829,2.0803,2.076,2.0702,2.0675,2.0652,2.0634,2.0636,2.0636,2.0638,2.0643,2.0598,2.0645,2.0644,2.0644,2.0644,2.0643,0,2.1168,2.1138,2.1116,2.1074,2.1054,2.1021,2.0984,2.0968,2.0946,2.091,2.0884,2.085,2.0819,2.077,2.0734,2.0725,2.0706,2.0717,2.0717,2.071,2.0661,2.0664,2.0733,2.0733,2.0733,2.0733,2.0733,2.0733,2.12,2.1187,2.1159,2.113,2.11,2.1075,2.1057,2.103,2.1,2.0965,2.094,2.0908,2.0866,2.0827,2.0796,2.0782,2.077,2.0787,2.0767,2.0722,2.0714,2.0706,2.0708,2.0785,2.0785,2.0818,2.0818,2.0818]}]]